CW4482 Weather Reports


Display with metric or nautical units.
time (UTC)temp
F
wind
direction
speed
MPH
gust
MPH
rain 1hr
in
rain 24hr
in
rain mn
in
humidity
%
barometer
mb
20260507083043 69 5 1.0 3.0 0.00 0.00 0.00 85 1012.6
20260507081525 70 350 1.0 4.0 0.00 0.00 0.00 86 1012.5
20260507080025 70 38 1.0 3.0 0.00 0.00 0.00 85 1012.5
20260507074527 70 5 2.0 4.0 0.00 0.00 0.00 85 1012.7
20260507073020 70 5 0.0 0.0 0.00 0.00 0.00 85 1012.8
20260507071524 70 360 0.0 0.0 0.00 0.00 0.00 85 1012.7
20260507070046 70 13 0.0 0.0 0.00 0.00 0.00 85 1012.8
20260507064525 70 24 0.0 0.0 0.00 0.00 0.00 84 1012.9
20260507063024 70 34 0.0 0.0 0.00 0.00 0.00 84 1012.4
20260507061522 71 15 0.0 0.0 0.00 0.00 0.00 84 1012.7
20260507060040 71 345 0.0 0.0 0.00 0.00 0.00 84 1012.4
20260507054519 71 300 0.0 0.0 0.00 0.00 0.00 84 1012.2
20260507053013 71 14 0.0 0.0 0.00 0.00 0.00 84 1012.4
20260507051512 72 360 0.0 0.0 0.00 0.00 0.00 84 1012.5
20260507050031 72 9 0.0 0.0 0.00 0.00 0.00 84 1012.3
20260507044531 72 324 0.0 0.0 0.00 0.00 0.00 84 1012.2
20260507043030 73 355 0.0 0.0 0.00 0.00 0.00 84 1012.3
20260507041525 73 328 0.0 0.0 0.00 0.00 0.00 85 1012.4
20260507040020 73 12 0.0 0.0 0.00 0.00 0.00 85 1012.2
20260507034519 74 46 0.0 0.0 0.00 0.00 0.00 85 1011.9
20260507033017 74 355 0.0 0.0 0.00 0.00 0.00 84 1011.6
20260507031536 75 337 0.0 0.0 0.00 0.00 0.00 86 1011.3
20260507030032 76 313 0.0 0.0 0.00 0.00 0.00 87 1011.0
20260507024512 77 5 0.0 0.0 0.00 0.00 0.00 86 1010.4
20260507023036 78 5 0.0 0.0 0.00 0.00 0.00 89 1010.1
20260507021521 79 216 0.0 0.0 0.00 0.00 0.00 88 1009.9
20260507020042 80 159 0.0 0.0 0.00 0.00 0.00 89 1010.0
20260507014532 80 159 0.0 0.0 0.00 0.00 0.00 90 1009.6
20260507013018 80 159 0.0 0.0 0.00 0.00 0.00 89 1009.2
20260507011514 80 159 0.0 0.0 0.00 0.00 0.00 89 1009.0
20260507010029 81 159 0.0 0.0 0.00 0.00 0.00 88 1008.7
20260507004530 81 159 0.0 0.0 0.00 0.00 0.00 86 1008.4
20260507003034 82 157 0.0 0.0 0.00 0.00 0.00 86 1008.4
20260507001528 83 144 0.0 0.0 0.00 0.00 0.00 85 1008.4
20260507000023 83 139 0.0 0.0 0.00 0.00 0.00 86 1008.1
20260506234517 83 156 0.0 0.0 0.00 0.00 0.00 85 1008.0
20260506233018 84 146 0.0 0.0 0.00 0.00 0.00 85 1007.9
20260506231522 84 159 0.0 0.0 0.00 0.00 0.00 85 1008.1
20260506230017 85 150 0.0 0.0 0.00 0.00 0.00 84 1007.9
20260506224520 85 148 0.0 0.0 0.00 0.00 0.00 84 1007.9
20260506223020 85 152 0.0 0.0 0.00 0.00 0.00 83 1007.8
20260506221517 85 168 0.0 0.0 0.00 0.00 0.00 82 1007.8
20260506220019 85 187 0.0 0.0 0.00 0.00 0.00 84 1007.7
20260506214518 85 156 0.0 0.0 0.00 0.00 0.00 83 1007.6
20260506213020 83 163 0.0 0.0 0.00 0.00 0.00 85 1007.9
20260506211523 83 157 0.0 0.0 0.00 0.00 0.00 86 1008.0
20260506210024 84 148 0.0 0.0 0.00 0.00 0.00 85 1008.0
20260506204524 83 124 0.0 0.0 0.00 0.00 0.00 86 1008.1
20260506203024 83 119 0.0 0.0 0.00 0.00 0.00 84 1008.3
20260506201525 83 159 0.0 0.0 0.00 0.00 0.00 88 1008.2
20260506200028 83 161 0.0 0.0 0.00 0.00 0.00 85 1008.5
20260506194532 84 155 0.0 0.0 0.00 0.00 0.00 84 1008.6
20260506193029 85 153 0.0 0.0 0.00 0.00 0.00 82 1008.8
20260506191524 85 153 0.0 0.0 0.00 0.00 0.00 84 1008.9
20260506190013 86 133 0.0 0.0 0.00 0.00 0.00 82 1009.0
20260506184538 85 148 0.0 0.0 0.00 0.00 0.00 85 1009.1
20260506183012 83 135 0.0 0.0 0.00 0.00 0.00 87 1009.6
20260506181517 83 194 0.0 0.0 0.00 0.00 0.00 86 1009.8
20260506180030 83 192 0.0 0.0 0.00 0.00 0.00 87 1010.1
20260506174531 83 193 0.0 0.0 0.00 0.00 0.00 87 1010.2
20260506173029 82 192 0.0 0.0 0.00 0.00 0.00 88 1010.3
20260506171531 82 192 0.0 0.0 0.00 0.00 0.00 87 1010.5
20260506170054 81 207 0.0 0.0 0.00 0.00 0.00 90 1010.4
20260506164529 80 175 0.0 0.0 0.00 0.00 0.00 93 1010.6
20260506163020 79 175 0.0 0.0 0.00 0.00 0.00 92 1010.7
20260506161518 79 175 0.0 0.0 0.00 0.00 0.00 92 1010.4
20260506160023 79 175 0.0 2.0 0.00 0.00 0.00 91 1010.4
20260506154530 79 175 0.0 0.0 0.00 0.00 0.00 91 1010.2
20260506153037 79 175 0.0 0.0 0.00 0.00 0.00 92 1010.1
20260506151529 79 175 0.0 2.0 0.00 0.00 0.00 91 1009.8
20260506150026 79 173 0.0 2.0 0.00 0.00 0.00 92 1009.7
20260506144529 79 175 1.0 2.0 0.00 0.00 0.00 93 1009.4
20260506143051 78 175 0.0 0.0 0.00 0.00 0.00 94 1009.3
20260506141526 77 180 0.0 0.0 0.00 0.00 0.00 95 1009.5
20260506140024 77 180 0.0 0.0 0.00 0.00 0.00 96 1009.5
20260506134517 76 180 0.0 1.0 0.00 0.00 0.00 96 1009.6
20260506133020 75 180 0.0 1.0 0.00 0.00 0.00 96 1009.6
20260506131530 75 180 0.0 1.0 0.00 0.00 0.00 96 1009.7
20260506130033 74 180 0.0 0.0 0.00 0.00 0.00 95 1009.6
20260506124537 74 180 0.0 0.0 0.00 0.00 0.00 95 1009.6
20260506123020 74 180 0.0 0.0 0.00 0.00 0.00 95 1009.6
20260506121526 74 180 0.0 1.0 0.00 0.00 0.00 95 1009.4
20260506120029 74 180 0.0 2.0 0.00 0.00 0.00 95 1009.2
20260506114532 73 180 0.0 3.0 0.00 0.00 0.00 95 1008.9
20260506113029 73 180 0.0 0.0 0.00 0.00 0.00 94 1008.7
20260506111551 74 180 0.0 0.0 0.00 0.00 0.00 94 1008.5
20260506110027 74 180 0.0 0.0 0.00 0.00 0.00 94 1008.3
20260506104527 74 180 0.0 0.0 0.00 0.00 0.00 94 1008.4
20260506103030 74 180 0.0 0.0 0.00 0.00 0.00 94 1008.2
20260506101551 74 173 0.0 0.0 0.00 0.00 0.00 94 1008.2
20260506100036 75 174 0.0 0.0 0.00 0.00 0.00 93 1008.1
20260506094513 74 178 0.0 0.0 0.00 0.00 0.00 93 1008.0
20260506093013 75 183 0.0 0.0 0.00 0.00 0.00 93 1007.9
20260506091533 75 184 0.0 6.0 0.00 0.00 0.00 93 1008.1
20260506090028 75 188 1.0 3.0 0.00 0.00 0.00 92 1008.2
20260506084530 75 193 2.0 4.0 0.00 0.00 0.00 92 1008.3